Weather History for St. Petersburg Airport, FL

Change the Weather History Date:

Wednesday, May 1, 2013

  Actual Average Record
Temperature  
Mean Temperature 72 °F -  
Max Temperature 75 °F 84 °F 92 °F (1986)
Min Temperature 69 °F 68 °F 55 °F (1999)
Cooling Degree Days 7    
Growing Degree Days 22 (Base 50)    
Moisture  
Dew Point 68 °F    
Average Humidity 86    
Maximum Humidity 90    
Minimum Humidity 82    
Precipitation  
Precipitation 0.91 in - - ()
Sea Level Pressure  
Sea Level Pressure 29.97 in    
Wind  
Wind Speed 9 mph (ESE)    
Max Wind Speed 15 mph    
Max Gust Speed 17 mph    
Visibility 10 miles    
Events Rain , Thunderstorm    
Averages and records for this station are not official NWS values.
T = Trace of Precipitation, MM = Missing Value Source: NWS Daily Summary

Daily Weather History Graph

Daily Weather History Graph

Search for Another Location

Airport:

Trip Planner

Search our weather history database for the weather conditions in past years. The results will help you decide how hot, cold, wet, or windy it might be!

Date:

Astronomy

May. 01, 2013 Rise Set
Actual Time 6:50 AM EDT 8:05 PM EDT
Civil Twilight 6:26 AM EDT 8:30 PM EDT
Nautical Twilight 5:56 AM EDT 8:59 PM EDT
Astronomical Twilight 5:26 AM EDT 9:29 PM EDT
Moon 1:12 AM EDT (5/1) 12:27 PM EDT (5/1)
Length of Visible Light 14h 03m
Length of Day
13h 14m
Waning Gibbous, 59% of the Moon is Illuminated
May 1
Waning Gibbous
May 2
Last Quarter
May 9
New
May 18
First Quarter
May 25
Full

Hourly Weather History & Observations

Time (EDT) Temp. Dew Point Humidity Pressure Visibility Wind Dir Wind Speed Gust Speed Precip Events Conditions
12:53 AM 73.9 °F 68.0 °F 82% 29.98 in 10.0 mi East 6.9 mph - N/A   Clear
1:53 AM 73.9 °F 69.1 °F 85% 29.96 in 10.0 mi ESE 8.1 mph - N/A   Clear
2:53 AM 73.9 °F 69.1 °F 85% 29.94 in 10.0 mi East 8.1 mph - N/A   Clear
3:49 AM 73.4 °F 69.8 °F 88% 29.93 in 10.0 mi East 11.5 mph - N/A   Partly Cloudy
3:53 AM 73.9 °F 69.1 °F 85% 29.94 in 10.0 mi ESE 11.5 mph - N/A   Partly Cloudy
4:45 AM 73.4 °F 69.8 °F 88% 29.93 in 10.0 mi East 8.1 mph - N/A   Mostly Cloudy
4:53 AM 73.9 °F 69.1 °F 85% 29.93 in 10.0 mi East 9.2 mph - N/A   Scattered Clouds
5:29 AM 73.4 °F 69.8 °F 88% 29.93 in 10.0 mi East 8.1 mph - N/A   Scattered Clouds
5:48 AM 73.4 °F 69.8 °F 88% 29.94 in 10.0 mi East 9.2 mph - N/A   Mostly Cloudy
5:53 AM 73.0 °F 68.0 °F 84% 29.94 in 10.0 mi East 11.5 mph - N/A   Mostly Cloudy
5:58 AM 73.4 °F 68.0 °F 83% 29.94 in 10.0 mi East 8.1 mph - N/A   Mostly Cloudy
6:34 AM 73.4 °F 69.8 °F 88% 29.95 in 10.0 mi East 10.4 mph 17.3 mph N/A   Scattered Clouds
6:53 AM 73.0 °F 69.1 °F 87% 29.97 in 10.0 mi ESE 8.1 mph - N/A   Scattered Clouds
7:53 AM 73.9 °F 69.1 °F 85% 29.98 in 10.0 mi East 10.4 mph - N/A   Scattered Clouds
8:53 AM 73.9 °F 69.1 °F 85% 29.98 in 10.0 mi East 10.4 mph - N/A   Overcast
9:50 AM 75.2 °F 69.8 °F 83% 30.00 in 10.0 mi ESE 9.2 mph - N/A   Mostly Cloudy
9:53 AM 75.0 °F 69.1 °F 82% 30.00 in 10.0 mi ESE 9.2 mph - N/A   Mostly Cloudy
10:31 AM 75.2 °F 69.8 °F 83% 30.01 in 10.0 mi ESE 12.7 mph - 0.00 in Rain Light Rain
10:39 AM 75.2 °F 69.8 °F 83% 30.01 in 10.0 mi ESE 10.4 mph - 0.01 in Rain Light Rain
10:53 AM 75.0 °F 70.0 °F 84% 30.01 in 5.0 mi East 6.9 mph - 0.03 in Rain Light Rain
11:53 AM 75.0 °F 71.1 °F 87% 30.01 in 8.0 mi East 6.9 mph - 0.02 in Rain Light Rain
12:16 PM 75.2 °F 71.6 °F 89% 30.01 in 10.0 mi East 6.9 mph - 0.02 in Rain Light Rain
12:53 PM 75.0 °F 71.1 °F 87% 29.99 in 10.0 mi East 8.1 mph - 0.05 in Rain Light Rain
1:53 PM 75.9 °F 71.1 °F 85% 29.98 in 10.0 mi East 10.4 mph - 0.00 in Rain Light Rain
2:53 PM 75.9 °F 71.1 °F 85% 29.96 in 10.0 mi East 11.5 mph - 0.03 in Rain Light Rain
3:18 PM 75.2 °F 71.6 °F 89% 29.96 in 10.0 mi East 9.2 mph - 0.02 in Rain , Thunderstorm Light Rain
3:41 PM 69.8 °F 66.2 °F 88% 29.96 in 10.0 mi South 11.5 mph - 0.08 in Rain , Thunderstorm Thunderstorms and Rain
3:53 PM 69.1 °F 66.0 °F 90% 29.96 in 5.0 mi SSE 6.9 mph - 0.26 in Rain , Thunderstorm Heavy Thunderstorms and Rain
4:02 PM 69.8 °F 66.2 °F 88% 29.96 in 10.0 mi SE 8.1 mph - 0.05 in Rain Rain
4:09 PM 69.8 °F 66.2 °F 88% 29.96 in 10.0 mi SE 8.1 mph - 0.08 in Rain , Thunderstorm Rain
4:16 PM 69.8 °F 66.2 °F 88% 29.95 in 10.0 mi Calm Calm - 0.10 in Rain , Thunderstorm Rain
4:24 PM 69.8 °F 66.2 °F 88% 29.95 in 10.0 mi Calm Calm - 0.14 in Rain Rain
4:35 PM 69.8 °F 66.2 °F 88% 29.95 in 10.0 mi East 5.8 mph - 0.18 in Rain , Thunderstorm Rain
4:50 PM 69.8 °F 66.2 °F 88% 29.95 in 10.0 mi South 8.1 mph - 0.27 in Rain Heavy Rain
4:53 PM 69.8 °F 66.2 °F 88% 29.95 in 10.0 mi SE 5.8 mph - N/A Rain Rain
5:53 PM 70.0 °F 66.9 °F 90% 29.96 in 10.0 mi East 4.6 mph - 0.35 in Rain Light Rain
6:53 PM 70.0 °F 66.0 °F 87% 29.96 in 10.0 mi East 8.1 mph - 0.06 in Rain Light Rain
7:53 PM 70.0 °F 66.0 °F 87% 29.96 in 10.0 mi ESE 8.1 mph - 0.04 in Rain Light Rain
8:00 PM 69.8 °F 66.2 °F 88% 29.96 in 10.0 mi ESE 10.4 mph - 0.00 in Rain Light Rain
8:25 PM 69.8 °F 64.4 °F 83% 29.97 in 10.0 mi ESE 10.4 mph - 0.01 in Rain Light Rain
8:53 PM 69.1 °F 64.9 °F 87% 29.98 in 10.0 mi ESE 15.0 mph - 0.01 in   Scattered Clouds
9:53 PM - - N/A% 29.99 in 10.0 mi East 11.5 mph - 0.02 in Rain Light Rain
10:53 PM - - N/A% 29.99 in 10.0 mi ESE 5.8 mph - 0.04 in   Overcast
11:53 PM 71.1 °F 66.9 °F 87% 29.99 in 10.0 mi ENE 5.8 mph - N/A   Overcast